Find Starlink 35607

NORAD ID: 66163 Int'l Des: 2025-240 Owner: SPXS Country: US Constellation: starlink operational
LEOCIRCULAR

現在のビュー

3D地球を読み込み中...

Starlink 35607について

説明を読み込み中...

次回通過

Passes for default location (London). Set your location on the main map for personalized predictions.

高度履歴

Loading altitude history...

軌道要素

1 66163U 25240T 26146.17629950 .00041045 00000-0 12207-2 0 9991
2 66163 53.1597 62.0589 0001284 98.9494 261.1654 15.34363923 33866
Epoch: May 26, 2026 • Age: 17 hours

現在のステータス

高度 478.0 km
速度 7.63 km/s
衛星直下点 -43.39°S, 171.96°E
打ち上げ日 Oct 25, 2025
運用期間 0.5 years
タイプ internet

技術仕様

分類 Payload
質量 575.00 kg
乾燥質量 530.00 kg
総質量 575.00 kg
長さ 0.30 m
直径 4.10 m
スパン 29.00 m
形状 Box + pan
製造者 SPXS
バスタイプ Starlink V2MO
フェーズステータス In Orbit
所有者/国 SPXS/US

Most Searched